#timestamp,LO_Frequency,Hit,StdDev 
1711702815.5,286047000.5,N
1711702835.4,286046999.7,N
1711702855.2,286047002.6,N
1711702875.0,286047002.5,N
1711702875.9,286047002.5,N
1711702895.8,286047000.1,N
1711702915.6,286046999.8,N
1711702935.4,286047000.2,N
1711702955.3,286047002.3,N
1711702975.1,286047002.7,N
1711702995.9,286047000.3,N
1711703015.7,286047000.2,N
1711703035.5,286046999.9,N
1711703055.4,286047000.5,N
1711703075.2,286047000.3,N
1711703095.1,286047001.0,N
1711703096.0,286047001.0,N
1711703115.8,286046998.1,N
1711703135.6,286046998.8,N
1711703155.5,286046999.5,N
1711703175.3,286046998.7,N
1711703195.1,286046998.9,N
1711703215.9,286046998.2,N
1711703235.7,286046998.2,N
1711703255.6,286046998.3,N
1711703275.4,286046999.0,N
1711703295.2,286046998.5,N
1711703315.1,286046999.1,N
1711703316.0,286046999.1,N
1711703335.8,286046999.4,N
1711703355.7,286046997.5,N
1711703375.5,286046996.7,N
1711703395.3,286046997.6,N
1711703415.2,286046997.3,N
1711703435.0,286046996.6,N
1711703435.9,286046996.6,N
1711703455.7,286046996.9,N
1711703475.6,286046999.1,N
1711703495.4,286046999.6,N
1711703515.3,286046997.3,N
1711703535.1,286046999.6,N
1711703555.8,286046998.8,N
1711703575.7,286046998.7,N
1711703595.5,286047000.5,N
1711703615.4,286047000.4,N
1711703635.2,286047000.4,N
1711703655.0,286046999.9,N
1711703655.9,286046999.9,N
1711703675.8,286046999.8,N
1711703695.6,286047000.2,N
1711703715.5,286047000.1,N
1711703735.3,286047000.5,N
1711703755.1,286047000.7,N
1711703775.9,286046998.6,N
1711703795.7,286046998.3,N
1711703815.6,286046999.4,N
1711703835.4,286046996.7,N
1711703855.2,286046997.2,N
1711703875.1,286046996.8,N
1711703876.0,286046996.8,N
1711703895.8,286046999.2,N
1711703915.6,286046996.5,N
1711703935.5,286046998.1,N
1711703955.3,286046998.4,N
1711703975.2,286046998.9,N
1711703995.0,286046999.0,N
1711703995.9,286046999.0,N
1711704015.8,286046998.4,N
1711704035.6,286046998.9,N
1711704055.4,286046998.8,N
1711704075.3,286046998.1,N
1711704095.1,286046998.3,N
1711704115.8,286046998.7,N
1711704135.7,286046998.5,N
1711704155.5,286046999.3,N
1711704175.4,286046998.4,N
1711704195.2,286046997.0,N
1711704215.0,286046999.4,N
1711704215.9,286046999.4,N
1711704235.8,286047000.7,N
1711704255.6,286046998.5,N
1711704275.4,286047001.2,N
1711704295.3,286046998.7,N
1711704315.1,286046998.4,N
1711704335.9,286046999.4,N
1711704355.7,286046997.1,N
1711704375.5,286046996.8,N
1711704395.4,286046998.9,N
1711704415.2,286046999.2,N
1711704435.1,286047001.0,N
1711704436.0,286047001.0,N
1711704455.8,286047000.6,N
1711704475.6,286047000.9,N
1711704495.5,286047000.5,N
1711704515.3,286046999.1,N
1711704535.1,286046996.6,N
1711704555.9,286046998.7,N
1711704575.7,286046998.4,N
1711704595.6,286047001.2,N
1711704615.4,286047001.1,N
1711704635.2,286047001.0,N
1711704655.1,286047000.5,N
1711704656.0,286047000.5,N
1711704675.8,286047000.2,N
1711704695.7,286047001.1,N
1711704715.5,286047000.3,N
1711704735.3,286047001.2,N
1711704755.2,286046999.9,N
1711704775.0,286047002.8,N
1711704775.9,286047002.8,N
1711704795.8,286047001.9,N
1711704815.6,286047002.2,N
1711704835.4,286047001.7,N
1711704855.3,286047003.5,N
1711704875.1,286047001.7,N
1711704895.8,286047000.2,N
1711704915.7,286046999.7,N
1711704935.5,286046999.7,N
1711704955.4,286046999.8,N
1711704975.2,286047001.0,N
1711704995.0,286047000.9,N
1711704995.9,286047000.9,N
1711705015.8,286047001.0,N
1711705035.6,286047000.6,N
1711705055.4,286047000.4,N
1711705075.3,286047000.2,N
1711705095.1,286047002.3,N
1711705115.9,286047001.6,N
1711705135.7,286047001.7,N
1711705155.5,286047001.4,N
1711705175.4,286047001.3,N
1711705195.2,286047003.2,Y
1711705215.0,286047001.5,P
1711705215.9,286047001.5,P
1711705235.8,286047002.8,P
1711705255.6,286047002.7,Y
1711705275.5,286047000.4,P
1711705295.3,286047000.4,N
1711705315.1,286046998.4,N
1711705335.9,286046999.0,N
1711705355.7,286046997.6,N
1711705375.5,286046996.5,N
1711705395.4,286046998.9,N
1711705415.2,286046999.5,N
1711705435.1,286046999.5,N
1711705436.0,286046999.5,N
1711705455.8,286046996.6,N
1711705475.6,286046999.4,N
1711705495.5,286046999.6,N
1711705515.3,286046997.0,N
1711705535.1,286046997.4,N
1711705555.9,286046997.8,N
1711705575.7,286046997.5,N
1711705595.6,286046999.0,N
1711705615.4,286046998.3,N
1711705635.2,286046998.6,N
1711705655.1,286046998.1,N
1711705656.0,286046998.1,N
1711705675.8,286046998.2,N
1711705695.6,286047000.3,N
1711705715.5,286047001.0,N
1711705735.3,286046998.9,N
1711705785.2,286046999.6,E
1711705795.1,286046998.3,N
1711705796.0,286046998.3,P
1711705815.8,286046998.4,P
1711705835.7,286046998.6,Y
1711705855.5,286047002.3,P
1711705875.4,286046999.7,N
1711705895.2,286046999.7,N
1711705915.0,286047002.8,N
1711705915.9,286047002.8,N
1711705935.8,286047002.2,N
1711705955.6,286047002.6,N
1711705975.4,286047002.4,N
1711705995.3,286047001.1,N
1711706015.1,286047001.1,N
1711706035.9,286047001.2,N
1711706055.7,286047000.3,N
1711706075.5,286047000.5,N
1711706095.4,286047001.0,N
1711706115.2,286047000.9,N
1711706135.0,286047002.7,N
1711706135.9,286047002.7,N
1711706155.8,286047000.6,N
1711706175.6,286047000.0,N
1711706195.5,286047000.4,N
1711706215.3,286046999.9,N
1711706235.1,286047002.8,N
1711706255.9,286046999.7,N
1711706275.7,286047001.9,N
1711706295.6,286047002.7,N
1711706315.4,286046999.7,N
1711706335.2,286047001.9,N
1711706355.1,286046999.8,N
1711706356.0,286046999.8,N
1711706375.8,286047001.0,N
1711706395.7,286047001.2,N
